Index of /20260417/WXO-DD/model_rdps/10km/12/029
Name Last modified Size Description
Parent Directory -
20260417T12Z_MSC_RDPS_AbsoluteVorticity_IsbL-0250_RLatLon0.09_PT029H.grib2 2026-04-17 14:48 598K
20260417T12Z_MSC_RDPS_AbsoluteVorticity_IsbL-0500_RLatLon0.09_PT029H.grib2 2026-04-17 14:48 554K
20260417T12Z_MSC_RDPS_AbsoluteVorticity_IsbL-0700_RLatLon0.09_PT029H.grib2 2026-04-17 14:48 752K
20260417T12Z_MSC_RDPS_AbsoluteVorticity_IsbL-0850_RLatLon0.09_PT029H.grib2 2026-04-17 14:48 788K
20260417T12Z_MSC_RDPS_AirTemp_AGL-120m_RLatLon0.09_PT029H.grib2 2026-04-17 14:48 384K
20260417T12Z_MSC_RDPS_AirTemp_AGL-2m_RLatLon0.09_PT029H.grib2 2026-04-17 14:48 641K
20260417T12Z_MSC_RDPS_AirTemp_AGL-40m_RLatLon0.09_PT029H.grib2 2026-04-17 14:48 395K
20260417T12Z_MSC_RDPS_AirTemp_AGL-80m_RLatLon0.09_PT029H.grib2 2026-04-17 14:48 389K
20260417T12Z_MSC_RDPS_AirTemp_IsbL-0001_RLatLon0.09_PT029H.grib2 2026-04-17 14:48 326K
20260417T12Z_MSC_RDPS_AirTemp_IsbL-0005_RLatLon0.09_PT029H.grib2 2026-04-17 14:48 336K
20260417T12Z_MSC_RDPS_AirTemp_IsbL-0010_RLatLon0.09_PT029H.grib2 2026-04-17 14:48 307K
20260417T12Z_MSC_RDPS_AirTemp_IsbL-0020_RLatLon0.09_PT029H.grib2 2026-04-17 14:48 324K
20260417T12Z_MSC_RDPS_AirTemp_IsbL-0030_RLatLon0.09_PT029H.grib2 2026-04-17 14:48 379K
20260417T12Z_MSC_RDPS_AirTemp_IsbL-0050_RLatLon0.09_PT029H.grib2 2026-04-17 14:48 323K
20260417T12Z_MSC_RDPS_AirTemp_IsbL-0100_RLatLon0.09_PT029H.grib2 2026-04-17 14:48 420K
20260417T12Z_MSC_RDPS_AirTemp_IsbL-0150_RLatLon0.09_PT029H.grib2 2026-04-17 14:48 407K
20260417T12Z_MSC_RDPS_AirTemp_IsbL-0175_RLatLon0.09_PT029H.grib2 2026-04-17 14:48 408K
20260417T12Z_MSC_RDPS_AirTemp_IsbL-0200_RLatLon0.09_PT029H.grib2 2026-04-17 14:48 410K
20260417T12Z_MSC_RDPS_AirTemp_IsbL-0225_RLatLon0.09_PT029H.grib2 2026-04-17 14:48 411K
20260417T12Z_MSC_RDPS_AirTemp_IsbL-0250_RLatLon0.09_PT029H.grib2 2026-04-17 14:48 420K
20260417T12Z_MSC_RDPS_AirTemp_IsbL-0275_RLatLon0.09_PT029H.grib2 2026-04-17 14:48 400K
20260417T12Z_MSC_RDPS_AirTemp_IsbL-0300_RLatLon0.09_PT029H.grib2 2026-04-17 14:48 403K
20260417T12Z_MSC_RDPS_AirTemp_IsbL-0350_RLatLon0.09_PT029H.grib2 2026-04-17 14:48 414K
20260417T12Z_MSC_RDPS_AirTemp_IsbL-0400_RLatLon0.09_PT029H.grib2 2026-04-17 14:48 414K
20260417T12Z_MSC_RDPS_AirTemp_IsbL-0450_RLatLon0.09_PT029H.grib2 2026-04-17 14:48 387K
20260417T12Z_MSC_RDPS_AirTemp_IsbL-0500_RLatLon0.09_PT029H.grib2 2026-04-17 14:48 397K
20260417T12Z_MSC_RDPS_AirTemp_IsbL-0550_RLatLon0.09_PT029H.grib2 2026-04-17 14:48 417K
20260417T12Z_MSC_RDPS_AirTemp_IsbL-0600_RLatLon0.09_PT029H.grib2 2026-04-17 14:48 436K
20260417T12Z_MSC_RDPS_AirTemp_IsbL-0650_RLatLon0.09_PT029H.grib2 2026-04-17 14:48 452K
20260417T12Z_MSC_RDPS_AirTemp_IsbL-0700_RLatLon0.09_PT029H.grib2 2026-04-17 14:48 481K
20260417T12Z_MSC_RDPS_AirTemp_IsbL-0750_RLatLon0.09_PT029H.grib2 2026-04-17 14:48 411K
20260417T12Z_MSC_RDPS_AirTemp_IsbL-0800_RLatLon0.09_PT029H.grib2 2026-04-17 14:48 462K
20260417T12Z_MSC_RDPS_AirTemp_IsbL-0850_RLatLon0.09_PT029H.grib2 2026-04-17 14:48 514K
20260417T12Z_MSC_RDPS_AirTemp_IsbL-0875_RLatLon0.09_PT029H.grib2 2026-04-17 14:48 530K
20260417T12Z_MSC_RDPS_AirTemp_IsbL-0900_RLatLon0.09_PT029H.grib2 2026-04-17 14:48 535K
20260417T12Z_MSC_RDPS_AirTemp_IsbL-0925_RLatLon0.09_PT029H.grib2 2026-04-17 14:48 533K
20260417T12Z_MSC_RDPS_AirTemp_IsbL-0950_RLatLon0.09_PT029H.grib2 2026-04-17 14:48 534K
20260417T12Z_MSC_RDPS_AirTemp_IsbL-0970_RLatLon0.09_PT029H.grib2 2026-04-17 14:48 528K
20260417T12Z_MSC_RDPS_AirTemp_IsbL-0985_RLatLon0.09_PT029H.grib2 2026-04-17 14:48 530K
20260417T12Z_MSC_RDPS_AirTemp_IsbL-1000_RLatLon0.09_PT029H.grib2 2026-04-17 14:48 515K
20260417T12Z_MSC_RDPS_AirTemp_IsbL-1015_RLatLon0.09_PT029H.grib2 2026-04-17 14:48 512K
20260417T12Z_MSC_RDPS_Albedo_Sfc_RLatLon0.09_PT029H.grib2 2026-04-17 14:48 167K
20260417T12Z_MSC_RDPS_CAPE_Sfc_RLatLon0.09_PT029H.grib2 2026-04-17 14:48 1.7M
20260417T12Z_MSC_RDPS_CIN_Sfc_RLatLon0.09_PT029H.grib2 2026-04-17 14:48 1.1M
20260417T12Z_MSC_RDPS_CloudWater_EAtm_RLatLon0.09_PT029H.grib2 2026-04-17 14:48 210K
20260417T12Z_MSC_RDPS_ConvectivePrecip-Accum_Sfc_RLatLon0.09_PT029H.grib2 2026-04-17 14:48 930K
20260417T12Z_MSC_RDPS_DewPointDepression_AGL-2m_RLatLon0.09_PT029H.grib2 2026-04-17 14:48 417K
20260417T12Z_MSC_RDPS_DewPointDepression_IsbL-0001_RLatLon0.09_PT029H.grib2 2026-04-17 14:48 193
20260417T12Z_MSC_RDPS_DewPointDepression_IsbL-0005_RLatLon0.09_PT029H.grib2 2026-04-17 14:48 193
20260417T12Z_MSC_RDPS_DewPointDepression_IsbL-0010_RLatLon0.09_PT029H.grib2 2026-04-17 14:48 193
20260417T12Z_MSC_RDPS_DewPointDepression_IsbL-0020_RLatLon0.09_PT029H.grib2 2026-04-17 14:48 193
20260417T12Z_MSC_RDPS_DewPointDepression_IsbL-0030_RLatLon0.09_PT029H.grib2 2026-04-17 14:48 1.8K
20260417T12Z_MSC_RDPS_DewPointDepression_IsbL-0050_RLatLon0.09_PT029H.grib2 2026-04-17 14:48 103K
20260417T12Z_MSC_RDPS_DewPointDepression_IsbL-0100_RLatLon0.09_PT029H.grib2 2026-04-17 14:48 122K
20260417T12Z_MSC_RDPS_DewPointDepression_IsbL-0150_RLatLon0.09_PT029H.grib2 2026-04-17 14:48 139K
20260417T12Z_MSC_RDPS_DewPointDepression_IsbL-0175_RLatLon0.09_PT029H.grib2 2026-04-17 14:48 175K
20260417T12Z_MSC_RDPS_DewPointDepression_IsbL-0200_RLatLon0.09_PT029H.grib2 2026-04-17 14:48 205K
20260417T12Z_MSC_RDPS_DewPointDepression_IsbL-0225_RLatLon0.09_PT029H.grib2 2026-04-17 14:48 241K
20260417T12Z_MSC_RDPS_DewPointDepression_IsbL-0250_RLatLon0.09_PT029H.grib2 2026-04-17 14:48 285K
20260417T12Z_MSC_RDPS_DewPointDepression_IsbL-0275_RLatLon0.09_PT029H.grib2 2026-04-17 14:48 294K
20260417T12Z_MSC_RDPS_DewPointDepression_IsbL-0300_RLatLon0.09_PT029H.grib2 2026-04-17 14:48 311K
20260417T12Z_MSC_RDPS_DewPointDepression_IsbL-0350_RLatLon0.09_PT029H.grib2 2026-04-17 14:48 316K
20260417T12Z_MSC_RDPS_DewPointDepression_IsbL-0400_RLatLon0.09_PT029H.grib2 2026-04-17 14:48 330K
20260417T12Z_MSC_RDPS_DewPointDepression_IsbL-0450_RLatLon0.09_PT029H.grib2 2026-04-17 14:48 335K
20260417T12Z_MSC_RDPS_DewPointDepression_IsbL-0500_RLatLon0.09_PT029H.grib2 2026-04-17 14:48 340K
20260417T12Z_MSC_RDPS_DewPointDepression_IsbL-0550_RLatLon0.09_PT029H.grib2 2026-04-17 14:48 350K
20260417T12Z_MSC_RDPS_DewPointDepression_IsbL-0600_RLatLon0.09_PT029H.grib2 2026-04-17 14:48 365K
20260417T12Z_MSC_RDPS_DewPointDepression_IsbL-0650_RLatLon0.09_PT029H.grib2 2026-04-17 14:48 374K
20260417T12Z_MSC_RDPS_DewPointDepression_IsbL-0700_RLatLon0.09_PT029H.grib2 2026-04-17 14:48 386K
20260417T12Z_MSC_RDPS_DewPointDepression_IsbL-0750_RLatLon0.09_PT029H.grib2 2026-04-17 14:48 416K
20260417T12Z_MSC_RDPS_DewPointDepression_IsbL-0800_RLatLon0.09_PT029H.grib2 2026-04-17 14:48 449K
20260417T12Z_MSC_RDPS_DewPointDepression_IsbL-0850_RLatLon0.09_PT029H.grib2 2026-04-17 14:48 476K
20260417T12Z_MSC_RDPS_DewPointDepression_IsbL-0875_RLatLon0.09_PT029H.grib2 2026-04-17 14:48 471K
20260417T12Z_MSC_RDPS_DewPointDepression_IsbL-0900_RLatLon0.09_PT029H.grib2 2026-04-17 14:48 461K
20260417T12Z_MSC_RDPS_DewPointDepression_IsbL-0925_RLatLon0.09_PT029H.grib2 2026-04-17 14:48 451K
20260417T12Z_MSC_RDPS_DewPointDepression_IsbL-0950_RLatLon0.09_PT029H.grib2 2026-04-17 14:48 447K
20260417T12Z_MSC_RDPS_DewPointDepression_IsbL-0970_RLatLon0.09_PT029H.grib2 2026-04-17 14:48 442K
20260417T12Z_MSC_RDPS_DewPointDepression_IsbL-0985_RLatLon0.09_PT029H.grib2 2026-04-17 14:48 441K
20260417T12Z_MSC_RDPS_DewPointDepression_IsbL-1000_RLatLon0.09_PT029H.grib2 2026-04-17 14:48 438K
20260417T12Z_MSC_RDPS_DewPointDepression_IsbL-1015_RLatLon0.09_PT029H.grib2 2026-04-17 14:48 430K
20260417T12Z_MSC_RDPS_DewPoint_AGL-2m_RLatLon0.09_PT029H.grib2 2026-04-17 14:48 410K
20260417T12Z_MSC_RDPS_DownwardLongwaveRadiationFlux-Accum_Sfc_RLatLon0.09_PT029H.grib2 2026-04-17 14:48 457K
20260417T12Z_MSC_RDPS_DownwardShortwaveRadiationFlux-Accum_NTAtm_RLatLon0.09_PT029H.grib2 2026-04-17 14:48 143K
20260417T12Z_MSC_RDPS_DownwardShortwaveRadiationFlux-Accum_Sfc_RLatLon0.09_PT029H.grib2 2026-04-17 14:48 524K
20260417T12Z_MSC_RDPS_FreezingRain-Accum1h_Sfc_RLatLon0.09_PT029H.grib2 2026-04-17 14:48 12K
20260417T12Z_MSC_RDPS_FreezingRain-Accum_Sfc_RLatLon0.09_PT029H.grib2 2026-04-17 14:48 114K
20260417T12Z_MSC_RDPS_GeopotentialHeight_IsbL-0001_RLatLon0.09_PT029H.grib2 2026-04-17 14:48 274K
20260417T12Z_MSC_RDPS_GeopotentialHeight_IsbL-0005_RLatLon0.09_PT029H.grib2 2026-04-17 14:48 235K
20260417T12Z_MSC_RDPS_GeopotentialHeight_IsbL-0010_RLatLon0.09_PT029H.grib2 2026-04-17 14:48 309K
20260417T12Z_MSC_RDPS_GeopotentialHeight_IsbL-0020_RLatLon0.09_PT029H.grib2 2026-04-17 14:48 337K
20260417T12Z_MSC_RDPS_GeopotentialHeight_IsbL-0030_RLatLon0.09_PT029H.grib2 2026-04-17 14:48 339K
20260417T12Z_MSC_RDPS_GeopotentialHeight_IsbL-0050_RLatLon0.09_PT029H.grib2 2026-04-17 14:48 310K
20260417T12Z_MSC_RDPS_GeopotentialHeight_IsbL-0100_RLatLon0.09_PT029H.grib2 2026-04-17 14:48 285K
20260417T12Z_MSC_RDPS_GeopotentialHeight_IsbL-0150_RLatLon0.09_PT029H.grib2 2026-04-17 14:48 258K
20260417T12Z_MSC_RDPS_GeopotentialHeight_IsbL-0175_RLatLon0.09_PT029H.grib2 2026-04-17 14:48 260K
20260417T12Z_MSC_RDPS_GeopotentialHeight_IsbL-0200_RLatLon0.09_PT029H.grib2 2026-04-17 14:48 262K
20260417T12Z_MSC_RDPS_GeopotentialHeight_IsbL-0225_RLatLon0.09_PT029H.grib2 2026-04-17 14:48 263K
20260417T12Z_MSC_RDPS_GeopotentialHeight_IsbL-0250_RLatLon0.09_PT029H.grib2 2026-04-17 14:48 265K
20260417T12Z_MSC_RDPS_GeopotentialHeight_IsbL-0275_RLatLon0.09_PT029H.grib2 2026-04-17 14:48 263K
20260417T12Z_MSC_RDPS_GeopotentialHeight_IsbL-0300_RLatLon0.09_PT029H.grib2 2026-04-17 14:48 263K
20260417T12Z_MSC_RDPS_GeopotentialHeight_IsbL-0350_RLatLon0.09_PT029H.grib2 2026-04-17 14:48 228K
20260417T12Z_MSC_RDPS_GeopotentialHeight_IsbL-0400_RLatLon0.09_PT029H.grib2 2026-04-17 14:48 225K
20260417T12Z_MSC_RDPS_GeopotentialHeight_IsbL-0450_RLatLon0.09_PT029H.grib2 2026-04-17 14:48 293K
20260417T12Z_MSC_RDPS_GeopotentialHeight_IsbL-0500_RLatLon0.09_PT029H.grib2 2026-04-17 14:48 287K
20260417T12Z_MSC_RDPS_GeopotentialHeight_IsbL-0550_RLatLon0.09_PT029H.grib2 2026-04-17 14:48 283K
20260417T12Z_MSC_RDPS_GeopotentialHeight_IsbL-0600_RLatLon0.09_PT029H.grib2 2026-04-17 14:48 280K
20260417T12Z_MSC_RDPS_GeopotentialHeight_IsbL-0650_RLatLon0.09_PT029H.grib2 2026-04-17 14:48 278K
20260417T12Z_MSC_RDPS_GeopotentialHeight_IsbL-0700_RLatLon0.09_PT029H.grib2 2026-04-17 14:48 278K
20260417T12Z_MSC_RDPS_GeopotentialHeight_IsbL-0750_RLatLon0.09_PT029H.grib2 2026-04-17 14:48 254K
20260417T12Z_MSC_RDPS_GeopotentialHeight_IsbL-0800_RLatLon0.09_PT029H.grib2 2026-04-17 14:48 263K
20260417T12Z_MSC_RDPS_GeopotentialHeight_IsbL-0850_RLatLon0.09_PT029H.grib2 2026-04-17 14:48 272K
20260417T12Z_MSC_RDPS_GeopotentialHeight_IsbL-0875_RLatLon0.09_PT029H.grib2 2026-04-17 14:48 276K
20260417T12Z_MSC_RDPS_GeopotentialHeight_IsbL-0900_RLatLon0.09_PT029H.grib2 2026-04-17 14:48 280K
20260417T12Z_MSC_RDPS_GeopotentialHeight_IsbL-0925_RLatLon0.09_PT029H.grib2 2026-04-17 14:48 281K
20260417T12Z_MSC_RDPS_GeopotentialHeight_IsbL-0950_RLatLon0.09_PT029H.grib2 2026-04-17 14:48 285K
20260417T12Z_MSC_RDPS_GeopotentialHeight_IsbL-0970_RLatLon0.09_PT029H.grib2 2026-04-17 14:48 291K
20260417T12Z_MSC_RDPS_GeopotentialHeight_IsbL-0985_RLatLon0.09_PT029H.grib2 2026-04-17 14:48 299K
20260417T12Z_MSC_RDPS_GeopotentialHeight_IsbL-1000_RLatLon0.09_PT029H.grib2 2026-04-17 14:48 309K
20260417T12Z_MSC_RDPS_GeopotentialHeight_IsbL-1015_RLatLon0.09_PT029H.grib2 2026-04-17 14:48 322K
20260417T12Z_MSC_RDPS_Humidex_Sfc_RLatLon0.09_PT029H.grib2 2026-04-17 14:48 2.4M
20260417T12Z_MSC_RDPS_IcePellets-Accum1h_Sfc_RLatLon0.09_PT029H.grib2 2026-04-17 14:48 7.3K
20260417T12Z_MSC_RDPS_IcePellets-Accum_Sfc_RLatLon0.09_PT029H.grib2 2026-04-17 14:48 44K
20260417T12Z_MSC_RDPS_KIndex_Sfc_RLatLon0.09_PT029H.grib2 2026-04-17 14:48 2.4M
20260417T12Z_MSC_RDPS_LatentHeatNetFlux_Sfc_RLatLon0.09_PT029H.grib2 2026-04-17 14:48 294K
20260417T12Z_MSC_RDPS_LiftedIndex-MU-VT_IsbL-0500_RLatLon0.09_PT029H.grib2 2026-04-17 14:48 2.4M
20260417T12Z_MSC_RDPS_NetLongwaveRadiationFlux-Accum_Sfc_RLatLon0.09_PT029H.grib2 2026-04-17 14:48 608K
20260417T12Z_MSC_RDPS_NetShortwaveRadiationFlux-Accum_Sfc_RLatLon0.09_PT029H.grib2 2026-04-17 14:48 532K
20260417T12Z_MSC_RDPS_PlanetaryBoundaryLayerHeight_Sfc_RLatLon0.09_PT029H.grib2 2026-04-17 14:48 1.2M
20260417T12Z_MSC_RDPS_Precip-Accum1h_Sfc_RLatLon0.09_PT029H.grib2 2026-04-17 14:48 1.3M
20260417T12Z_MSC_RDPS_Precip-Accum_Sfc_RLatLon0.09_PT029H.grib2 2026-04-17 14:48 1.9M
20260417T12Z_MSC_RDPS_PrecipRate_Sfc_RLatLon0.09_PT029H.grib2 2026-04-17 14:48 179K
20260417T12Z_MSC_RDPS_PrecipType-Instant_Sfc_RLatLon0.09_PT029H.grib2 2026-04-17 14:48 542K
20260417T12Z_MSC_RDPS_Pressure-Trend3h_Sfc_RLatLon0.09_PT029H.grib2 2026-04-17 14:48 1.2M
20260417T12Z_MSC_RDPS_Pressure_MSL_RLatLon0.09_PT029H.grib2 2026-04-17 14:48 333K
20260417T12Z_MSC_RDPS_Pressure_PVU-1.5_RLatLon0.09_PT029H.grib2 2026-04-17 14:48 2.3M
20260417T12Z_MSC_RDPS_Pressure_PVU-1_RLatLon0.09_PT029H.grib2 2026-04-17 14:48 2.4M
20260417T12Z_MSC_RDPS_Pressure_PVU-2_RLatLon0.09_PT029H.grib2 2026-04-17 14:48 2.4M
20260417T12Z_MSC_RDPS_Pressure_Sfc_RLatLon0.09_PT029H.grib2 2026-04-17 14:48 501K
20260417T12Z_MSC_RDPS_RadiativeTemp_Sfc_RLatLon0.09_PT029H.grib2 2026-04-17 14:48 329K
20260417T12Z_MSC_RDPS_Rain-Accum1h_Sfc_RLatLon0.09_PT029H.grib2 2026-04-17 14:48 600K
20260417T12Z_MSC_RDPS_Rain-Accum_Sfc_RLatLon0.09_PT029H.grib2 2026-04-17 14:48 1.4M
20260417T12Z_MSC_RDPS_RelativeHumidity_AGL-2m_RLatLon0.09_PT029H.grib2 2026-04-17 14:48 1.0M
20260417T12Z_MSC_RDPS_RelativeHumidity_IsbL-0010_RLatLon0.09_PT029H.grib2 2026-04-17 14:48 518K
20260417T12Z_MSC_RDPS_RelativeHumidity_IsbL-0020_RLatLon0.09_PT029H.grib2 2026-04-17 14:48 403K
20260417T12Z_MSC_RDPS_RelativeHumidity_IsbL-0030_RLatLon0.09_PT029H.grib2 2026-04-17 14:48 355K
20260417T12Z_MSC_RDPS_RelativeHumidity_IsbL-0050_RLatLon0.09_PT029H.grib2 2026-04-17 14:48 337K
20260417T12Z_MSC_RDPS_RelativeHumidity_IsbL-0100_RLatLon0.09_PT029H.grib2 2026-04-17 14:48 361K
20260417T12Z_MSC_RDPS_RelativeHumidity_IsbL-0150_RLatLon0.09_PT029H.grib2 2026-04-17 14:48 378K
20260417T12Z_MSC_RDPS_RelativeHumidity_IsbL-0175_RLatLon0.09_PT029H.grib2 2026-04-17 14:48 469K
20260417T12Z_MSC_RDPS_RelativeHumidity_IsbL-0200_RLatLon0.09_PT029H.grib2 2026-04-17 14:48 541K
20260417T12Z_MSC_RDPS_RelativeHumidity_IsbL-0225_RLatLon0.09_PT029H.grib2 2026-04-17 14:48 604K
20260417T12Z_MSC_RDPS_RelativeHumidity_IsbL-0250_RLatLon0.09_PT029H.grib2 2026-04-17 14:48 673K
20260417T12Z_MSC_RDPS_RelativeHumidity_IsbL-0275_RLatLon0.09_PT029H.grib2 2026-04-17 14:48 699K
20260417T12Z_MSC_RDPS_RelativeHumidity_IsbL-0300_RLatLon0.09_PT029H.grib2 2026-04-17 14:48 737K
20260417T12Z_MSC_RDPS_RelativeHumidity_IsbL-0350_RLatLon0.09_PT029H.grib2 2026-04-17 14:48 748K
20260417T12Z_MSC_RDPS_RelativeHumidity_IsbL-0400_RLatLon0.09_PT029H.grib2 2026-04-17 14:48 761K
20260417T12Z_MSC_RDPS_RelativeHumidity_IsbL-0450_RLatLon0.09_PT029H.grib2 2026-04-17 14:48 767K
20260417T12Z_MSC_RDPS_RelativeHumidity_IsbL-0500_RLatLon0.09_PT029H.grib2 2026-04-17 14:48 776K
20260417T12Z_MSC_RDPS_RelativeHumidity_IsbL-0550_RLatLon0.09_PT029H.grib2 2026-04-17 14:48 814K
20260417T12Z_MSC_RDPS_RelativeHumidity_IsbL-0600_RLatLon0.09_PT029H.grib2 2026-04-17 14:48 836K
20260417T12Z_MSC_RDPS_RelativeHumidity_IsbL-0650_RLatLon0.09_PT029H.grib2 2026-04-17 14:48 849K
20260417T12Z_MSC_RDPS_RelativeHumidity_IsbL-0700_RLatLon0.09_PT029H.grib2 2026-04-17 14:48 874K
20260417T12Z_MSC_RDPS_RelativeHumidity_IsbL-0750_RLatLon0.09_PT029H.grib2 2026-04-17 14:48 922K
20260417T12Z_MSC_RDPS_RelativeHumidity_IsbL-0800_RLatLon0.09_PT029H.grib2 2026-04-17 14:48 1.0M
20260417T12Z_MSC_RDPS_RelativeHumidity_IsbL-0850_RLatLon0.09_PT029H.grib2 2026-04-17 14:48 1.0M
20260417T12Z_MSC_RDPS_RelativeHumidity_IsbL-0875_RLatLon0.09_PT029H.grib2 2026-04-17 14:48 1.1M
20260417T12Z_MSC_RDPS_RelativeHumidity_IsbL-0900_RLatLon0.09_PT029H.grib2 2026-04-17 14:48 1.1M
20260417T12Z_MSC_RDPS_RelativeHumidity_IsbL-0925_RLatLon0.09_PT029H.grib2 2026-04-17 14:48 1.1M
20260417T12Z_MSC_RDPS_RelativeHumidity_IsbL-0950_RLatLon0.09_PT029H.grib2 2026-04-17 14:48 1.1M
20260417T12Z_MSC_RDPS_RelativeHumidity_IsbL-0970_RLatLon0.09_PT029H.grib2 2026-04-17 14:48 1.1M
20260417T12Z_MSC_RDPS_RelativeHumidity_IsbL-0985_RLatLon0.09_PT029H.grib2 2026-04-17 14:48 1.0M
20260417T12Z_MSC_RDPS_RelativeHumidity_IsbL-1000_RLatLon0.09_PT029H.grib2 2026-04-17 14:48 1.0M
20260417T12Z_MSC_RDPS_RelativeHumidity_IsbL-1015_RLatLon0.09_PT029H.grib2 2026-04-17 14:48 1.0M
20260417T12Z_MSC_RDPS_Runoff-Accum_Sfc_RLatLon0.09_PT029H.grib2 2026-04-17 14:48 54K
20260417T12Z_MSC_RDPS_SWEATIndex_Sfc_RLatLon0.09_PT029H.grib2 2026-04-17 14:48 2.6M
20260417T12Z_MSC_RDPS_SeeingIndex_EAtm_RLatLon0.09_PT029H.grib2 2026-04-17 14:48 1.0M
20260417T12Z_MSC_RDPS_SensibleHeatNetFlux_Sfc_RLatLon0.09_PT029H.grib2 2026-04-17 14:48 365K
20260417T12Z_MSC_RDPS_ShowalterIndex_IsbL-0500_RLatLon0.09_PT029H.grib2 2026-04-17 14:48 2.6M
20260417T12Z_MSC_RDPS_SkyTransparencyIndex_EAtm_RLatLon0.09_PT029H.grib2 2026-04-17 14:48 706K
20260417T12Z_MSC_RDPS_Snow-Accum1h_Sfc_RLatLon0.09_PT029H.grib2 2026-04-17 14:48 460K
20260417T12Z_MSC_RDPS_Snow-Accum_Sfc_RLatLon0.09_PT029H.grib2 2026-04-17 14:48 727K
20260417T12Z_MSC_RDPS_SnowDensity_Sfc_RLatLon0.09_PT029H.grib2 2026-04-17 14:48 180K
20260417T12Z_MSC_RDPS_SnowDepth_Sfc_RLatLon0.09_PT029H.grib2 2026-04-17 14:48 731K
20260417T12Z_MSC_RDPS_SoilTemp_DBS-0to10cm_RLatLon0.09_PT029H.grib2 2026-04-17 14:48 225K
20260417T12Z_MSC_RDPS_SoilTemp_Sfc_RLatLon0.09_PT029H.grib2 2026-04-17 14:48 293K
20260417T12Z_MSC_RDPS_SoilVolumetricIceContent_Sfc_RLatLon0.09_PT029H.grib2 2026-04-17 14:48 178K
20260417T12Z_MSC_RDPS_SoilVolumetricWaterContent_DBS-0to10cm_RLatLon0.09_PT029H.grib2 2026-04-17 14:48 246K
20260417T12Z_MSC_RDPS_SoilVolumetricWaterContent_DBS-0to1cm_RLatLon0.09_PT029H.grib2 2026-04-17 14:48 334K
20260417T12Z_MSC_RDPS_SpecificHumidity_AGL-120m_RLatLon0.09_PT029H.grib2 2026-04-17 14:48 487K
20260417T12Z_MSC_RDPS_SpecificHumidity_AGL-2m_RLatLon0.09_PT029H.grib2 2026-04-17 14:48 653K
20260417T12Z_MSC_RDPS_SpecificHumidity_AGL-40m_RLatLon0.09_PT029H.grib2 2026-04-17 14:48 491K
20260417T12Z_MSC_RDPS_SpecificHumidity_AGL-80m_RLatLon0.09_PT029H.grib2 2026-04-17 14:48 487K
20260417T12Z_MSC_RDPS_SpecificHumidity_IsbL-0001_RLatLon0.09_PT029H.grib2 2026-04-17 14:48 315K
20260417T12Z_MSC_RDPS_SpecificHumidity_IsbL-0005_RLatLon0.09_PT029H.grib2 2026-04-17 14:48 345K
20260417T12Z_MSC_RDPS_SpecificHumidity_IsbL-0010_RLatLon0.09_PT029H.grib2 2026-04-17 14:48 382K
20260417T12Z_MSC_RDPS_SpecificHumidity_IsbL-0020_RLatLon0.09_PT029H.grib2 2026-04-17 14:48 382K
20260417T12Z_MSC_RDPS_SpecificHumidity_IsbL-0030_RLatLon0.09_PT029H.grib2 2026-04-17 14:48 465K
20260417T12Z_MSC_RDPS_SpecificHumidity_IsbL-0050_RLatLon0.09_PT029H.grib2 2026-04-17 14:48 465K
20260417T12Z_MSC_RDPS_SpecificHumidity_IsbL-0100_RLatLon0.09_PT029H.grib2 2026-04-17 14:48 488K
20260417T12Z_MSC_RDPS_SpecificHumidity_IsbL-0150_RLatLon0.09_PT029H.grib2 2026-04-17 14:48 433K
20260417T12Z_MSC_RDPS_SpecificHumidity_IsbL-0175_RLatLon0.09_PT029H.grib2 2026-04-17 14:48 531K
20260417T12Z_MSC_RDPS_SpecificHumidity_IsbL-0200_RLatLon0.09_PT029H.grib2 2026-04-17 14:48 540K
20260417T12Z_MSC_RDPS_SpecificHumidity_IsbL-0225_RLatLon0.09_PT029H.grib2 2026-04-17 14:48 542K
20260417T12Z_MSC_RDPS_SpecificHumidity_IsbL-0250_RLatLon0.09_PT029H.grib2 2026-04-17 14:48 541K
20260417T12Z_MSC_RDPS_SpecificHumidity_IsbL-0275_RLatLon0.09_PT029H.grib2 2026-04-17 14:48 455K
20260417T12Z_MSC_RDPS_SpecificHumidity_IsbL-0300_RLatLon0.09_PT029H.grib2 2026-04-17 14:48 523K
20260417T12Z_MSC_RDPS_SpecificHumidity_IsbL-0350_RLatLon0.09_PT029H.grib2 2026-04-17 14:48 510K
20260417T12Z_MSC_RDPS_SpecificHumidity_IsbL-0400_RLatLon0.09_PT029H.grib2 2026-04-17 14:48 494K
20260417T12Z_MSC_RDPS_SpecificHumidity_IsbL-0450_RLatLon0.09_PT029H.grib2 2026-04-17 14:48 547K
20260417T12Z_MSC_RDPS_SpecificHumidity_IsbL-0500_RLatLon0.09_PT029H.grib2 2026-04-17 14:48 485K
20260417T12Z_MSC_RDPS_SpecificHumidity_IsbL-0550_RLatLon0.09_PT029H.grib2 2026-04-17 14:48 545K
20260417T12Z_MSC_RDPS_SpecificHumidity_IsbL-0600_RLatLon0.09_PT029H.grib2 2026-04-17 14:48 615K
20260417T12Z_MSC_RDPS_SpecificHumidity_IsbL-0650_RLatLon0.09_PT029H.grib2 2026-04-17 14:48 656K
20260417T12Z_MSC_RDPS_SpecificHumidity_IsbL-0700_RLatLon0.09_PT029H.grib2 2026-04-17 14:48 575K
20260417T12Z_MSC_RDPS_SpecificHumidity_IsbL-0750_RLatLon0.09_PT029H.grib2 2026-04-17 14:48 634K
20260417T12Z_MSC_RDPS_SpecificHumidity_IsbL-0800_RLatLon0.09_PT029H.grib2 2026-04-17 14:48 710K
20260417T12Z_MSC_RDPS_SpecificHumidity_IsbL-0850_RLatLon0.09_PT029H.grib2 2026-04-17 14:48 794K
20260417T12Z_MSC_RDPS_SpecificHumidity_IsbL-0875_RLatLon0.09_PT029H.grib2 2026-04-17 14:48 814K
20260417T12Z_MSC_RDPS_SpecificHumidity_IsbL-0900_RLatLon0.09_PT029H.grib2 2026-04-17 14:48 824K
20260417T12Z_MSC_RDPS_SpecificHumidity_IsbL-0925_RLatLon0.09_PT029H.grib2 2026-04-17 14:48 827K
20260417T12Z_MSC_RDPS_SpecificHumidity_IsbL-0950_RLatLon0.09_PT029H.grib2 2026-04-17 14:48 691K
20260417T12Z_MSC_RDPS_SpecificHumidity_IsbL-0970_RLatLon0.09_PT029H.grib2 2026-04-17 14:48 685K
20260417T12Z_MSC_RDPS_SpecificHumidity_IsbL-0985_RLatLon0.09_PT029H.grib2 2026-04-17 14:48 682K
20260417T12Z_MSC_RDPS_SpecificHumidity_IsbL-1000_RLatLon0.09_PT029H.grib2 2026-04-17 14:48 674K
20260417T12Z_MSC_RDPS_SpecificHumidity_IsbL-1015_RLatLon0.09_PT029H.grib2 2026-04-17 14:48 664K
20260417T12Z_MSC_RDPS_SpecificHumidity_Sfc_RLatLon0.09_PT029H.grib2 2026-04-17 14:48 326K
20260417T12Z_MSC_RDPS_StormRelativeHelicity_EtaL-10000_RLatLon0.09_PT029H.grib2 2026-04-17 14:48 1.1M
20260417T12Z_MSC_RDPS_StormSeverityIndex_EtaL-10000_RLatLon0.09_PT029H.grib2 2026-04-17 14:48 1.2M
20260417T12Z_MSC_RDPS_Thickness_IsbL-0850to0700_RLatLon0.09_PT029H.grib2 2026-04-17 14:48 178K
20260417T12Z_MSC_RDPS_Thickness_IsbL-1000to0500_RLatLon0.09_PT029H.grib2 2026-04-17 14:48 203K
20260417T12Z_MSC_RDPS_Thickness_IsbL-1000to0850_RLatLon0.09_PT029H.grib2 2026-04-17 14:48 192K
20260417T12Z_MSC_RDPS_TotalCloudCover_Sfc_RLatLon0.09_PT029H.grib2 2026-04-17 14:48 651K
20260417T12Z_MSC_RDPS_TotalTotalsIndex_Sfc_RLatLon0.09_PT029H.grib2 2026-04-17 14:48 2.4M
20260417T12Z_MSC_RDPS_UVIndex-ClearSky_Sfc_RLatLon0.09_PT029H.grib2 2026-04-17 14:48 211K
20260417T12Z_MSC_RDPS_UVIndex_Sfc_RLatLon0.09_PT029H.grib2 2026-04-17 14:48 487K
20260417T12Z_MSC_RDPS_UpwardLongwaveRadiationFlux_NTAtm_RLatLon0.09_PT029H.grib2 2026-04-17 14:48 484K
20260417T12Z_MSC_RDPS_UpwardShortwaveRadiationFlux_NTAtm_RLatLon0.09_PT029H.grib2 2026-04-17 14:48 528K
20260417T12Z_MSC_RDPS_VerticalVelocity_IsbL-0250_RLatLon0.09_PT029H.grib2 2026-04-17 14:48 684K
20260417T12Z_MSC_RDPS_VerticalVelocity_IsbL-0500_RLatLon0.09_PT029H.grib2 2026-04-17 14:48 670K
20260417T12Z_MSC_RDPS_VerticalVelocity_IsbL-0700_RLatLon0.09_PT029H.grib2 2026-04-17 14:48 583K
20260417T12Z_MSC_RDPS_VerticalVelocity_IsbL-0850_RLatLon0.09_PT029H.grib2 2026-04-17 14:48 695K
20260417T12Z_MSC_RDPS_VerticalWindShear_EtaL-6500_RLatLon0.09_PT029H.grib2 2026-04-17 14:48 1.2M
20260417T12Z_MSC_RDPS_WindChill_Sfc_RLatLon0.09_PT029H.grib2 2026-04-17 14:48 1.2M
20260417T12Z_MSC_RDPS_WindDir_AGL-10m_RLatLon0.09_PT029H.grib2 2026-04-17 14:48 973K
20260417T12Z_MSC_RDPS_WindDir_AGL-120m_RLatLon0.09_PT029H.grib2 2026-04-17 14:48 615K
20260417T12Z_MSC_RDPS_WindDir_AGL-40m_RLatLon0.09_PT029H.grib2 2026-04-17 14:48 638K
20260417T12Z_MSC_RDPS_WindDir_AGL-80m_RLatLon0.09_PT029H.grib2 2026-04-17 14:48 624K
20260417T12Z_MSC_RDPS_WindDir_IsbL-0001_RLatLon0.09_PT029H.grib2 2026-04-17 14:48 269K
20260417T12Z_MSC_RDPS_WindDir_IsbL-0005_RLatLon0.09_PT029H.grib2 2026-04-17 14:48 335K
20260417T12Z_MSC_RDPS_WindDir_IsbL-0010_RLatLon0.09_PT029H.grib2 2026-04-17 14:48 362K
20260417T12Z_MSC_RDPS_WindDir_IsbL-0020_RLatLon0.09_PT029H.grib2 2026-04-17 14:48 378K
20260417T12Z_MSC_RDPS_WindDir_IsbL-0030_RLatLon0.09_PT029H.grib2 2026-04-17 14:48 388K
20260417T12Z_MSC_RDPS_WindDir_IsbL-0050_RLatLon0.09_PT029H.grib2 2026-04-17 14:48 406K
20260417T12Z_MSC_RDPS_WindDir_IsbL-0100_RLatLon0.09_PT029H.grib2 2026-04-17 14:48 392K
20260417T12Z_MSC_RDPS_WindDir_IsbL-0150_RLatLon0.09_PT029H.grib2 2026-04-17 14:48 377K
20260417T12Z_MSC_RDPS_WindDir_IsbL-0175_RLatLon0.09_PT029H.grib2 2026-04-17 14:48 405K
20260417T12Z_MSC_RDPS_WindDir_IsbL-0200_RLatLon0.09_PT029H.grib2 2026-04-17 14:48 422K
20260417T12Z_MSC_RDPS_WindDir_IsbL-0225_RLatLon0.09_PT029H.grib2 2026-04-17 14:48 426K
20260417T12Z_MSC_RDPS_WindDir_IsbL-0250_RLatLon0.09_PT029H.grib2 2026-04-17 14:48 425K
20260417T12Z_MSC_RDPS_WindDir_IsbL-0275_RLatLon0.09_PT029H.grib2 2026-04-17 14:48 445K
20260417T12Z_MSC_RDPS_WindDir_IsbL-0300_RLatLon0.09_PT029H.grib2 2026-04-17 14:48 443K
20260417T12Z_MSC_RDPS_WindDir_IsbL-0350_RLatLon0.09_PT029H.grib2 2026-04-17 14:48 465K
20260417T12Z_MSC_RDPS_WindDir_IsbL-0400_RLatLon0.09_PT029H.grib2 2026-04-17 14:48 481K
20260417T12Z_MSC_RDPS_WindDir_IsbL-0450_RLatLon0.09_PT029H.grib2 2026-04-17 14:48 497K
20260417T12Z_MSC_RDPS_WindDir_IsbL-0500_RLatLon0.09_PT029H.grib2 2026-04-17 14:48 520K
20260417T12Z_MSC_RDPS_WindDir_IsbL-0550_RLatLon0.09_PT029H.grib2 2026-04-17 14:48 550K
20260417T12Z_MSC_RDPS_WindDir_IsbL-0600_RLatLon0.09_PT029H.grib2 2026-04-17 14:48 580K
20260417T12Z_MSC_RDPS_WindDir_IsbL-0650_RLatLon0.09_PT029H.grib2 2026-04-17 14:48 627K
20260417T12Z_MSC_RDPS_WindDir_IsbL-0700_RLatLon0.09_PT029H.grib2 2026-04-17 14:48 678K
20260417T12Z_MSC_RDPS_WindDir_IsbL-0750_RLatLon0.09_PT029H.grib2 2026-04-17 14:48 726K
20260417T12Z_MSC_RDPS_WindDir_IsbL-0800_RLatLon0.09_PT029H.grib2 2026-04-17 14:48 786K
20260417T12Z_MSC_RDPS_WindDir_IsbL-0850_RLatLon0.09_PT029H.grib2 2026-04-17 14:48 859K
20260417T12Z_MSC_RDPS_WindDir_IsbL-0875_RLatLon0.09_PT029H.grib2 2026-04-17 14:48 888K
20260417T12Z_MSC_RDPS_WindDir_IsbL-0900_RLatLon0.09_PT029H.grib2 2026-04-17 14:48 903K
20260417T12Z_MSC_RDPS_WindDir_IsbL-0925_RLatLon0.09_PT029H.grib2 2026-04-17 14:48 910K
20260417T12Z_MSC_RDPS_WindDir_IsbL-0950_RLatLon0.09_PT029H.grib2 2026-04-17 14:48 910K
20260417T12Z_MSC_RDPS_WindDir_IsbL-0970_RLatLon0.09_PT029H.grib2 2026-04-17 14:48 917K
20260417T12Z_MSC_RDPS_WindDir_IsbL-0985_RLatLon0.09_PT029H.grib2 2026-04-17 14:48 928K
20260417T12Z_MSC_RDPS_WindDir_IsbL-1000_RLatLon0.09_PT029H.grib2 2026-04-17 14:48 943K
20260417T12Z_MSC_RDPS_WindDir_IsbL-1015_RLatLon0.09_PT029H.grib2 2026-04-17 14:48 962K
20260417T12Z_MSC_RDPS_WindGust-Max_AGL-10m_RLatLon0.09_PT029H.grib2 2026-04-17 14:48 958K
20260417T12Z_MSC_RDPS_WindGust-Min_AGL-10m_RLatLon0.09_PT029H.grib2 2026-04-17 14:48 1.0M
20260417T12Z_MSC_RDPS_WindGust_AGL-10m_RLatLon0.09_PT029H.grib2 2026-04-17 14:48 1.0M
20260417T12Z_MSC_RDPS_WindSpeed_AGL-10m_RLatLon0.09_PT029H.grib2 2026-04-17 14:48 855K
20260417T12Z_MSC_RDPS_WindSpeed_AGL-120m_RLatLon0.09_PT029H.grib2 2026-04-17 14:48 545K
20260417T12Z_MSC_RDPS_WindSpeed_AGL-40m_RLatLon0.09_PT029H.grib2 2026-04-17 14:48 549K
20260417T12Z_MSC_RDPS_WindSpeed_AGL-80m_RLatLon0.09_PT029H.grib2 2026-04-17 14:48 546K
20260417T12Z_MSC_RDPS_WindSpeed_IsbL-0001_RLatLon0.09_PT029H.grib2 2026-04-17 14:48 252K
20260417T12Z_MSC_RDPS_WindSpeed_IsbL-0005_RLatLon0.09_PT029H.grib2 2026-04-17 14:48 339K
20260417T12Z_MSC_RDPS_WindSpeed_IsbL-0010_RLatLon0.09_PT029H.grib2 2026-04-17 14:48 351K
20260417T12Z_MSC_RDPS_WindSpeed_IsbL-0020_RLatLon0.09_PT029H.grib2 2026-04-17 14:48 330K
20260417T12Z_MSC_RDPS_WindSpeed_IsbL-0030_RLatLon0.09_PT029H.grib2 2026-04-17 14:48 330K
20260417T12Z_MSC_RDPS_WindSpeed_IsbL-0050_RLatLon0.09_PT029H.grib2 2026-04-17 14:48 366K
20260417T12Z_MSC_RDPS_WindSpeed_IsbL-0100_RLatLon0.09_PT029H.grib2 2026-04-17 14:48 477K
20260417T12Z_MSC_RDPS_WindSpeed_IsbL-0150_RLatLon0.09_PT029H.grib2 2026-04-17 14:48 364K
20260417T12Z_MSC_RDPS_WindSpeed_IsbL-0175_RLatLon0.09_PT029H.grib2 2026-04-17 14:48 395K
20260417T12Z_MSC_RDPS_WindSpeed_IsbL-0200_RLatLon0.09_PT029H.grib2 2026-04-17 14:48 434K
20260417T12Z_MSC_RDPS_WindSpeed_IsbL-0225_RLatLon0.09_PT029H.grib2 2026-04-17 14:48 442K
20260417T12Z_MSC_RDPS_WindSpeed_IsbL-0250_RLatLon0.09_PT029H.grib2 2026-04-17 14:48 445K
20260417T12Z_MSC_RDPS_WindSpeed_IsbL-0275_RLatLon0.09_PT029H.grib2 2026-04-17 14:48 459K
20260417T12Z_MSC_RDPS_WindSpeed_IsbL-0300_RLatLon0.09_PT029H.grib2 2026-04-17 14:48 454K
20260417T12Z_MSC_RDPS_WindSpeed_IsbL-0350_RLatLon0.09_PT029H.grib2 2026-04-17 14:48 463K
20260417T12Z_MSC_RDPS_WindSpeed_IsbL-0400_RLatLon0.09_PT029H.grib2 2026-04-17 14:48 468K
20260417T12Z_MSC_RDPS_WindSpeed_IsbL-0450_RLatLon0.09_PT029H.grib2 2026-04-17 14:48 468K
20260417T12Z_MSC_RDPS_WindSpeed_IsbL-0500_RLatLon0.09_PT029H.grib2 2026-04-17 14:48 451K
20260417T12Z_MSC_RDPS_WindSpeed_IsbL-0550_RLatLon0.09_PT029H.grib2 2026-04-17 14:48 453K
20260417T12Z_MSC_RDPS_WindSpeed_IsbL-0600_RLatLon0.09_PT029H.grib2 2026-04-17 14:48 461K
20260417T12Z_MSC_RDPS_WindSpeed_IsbL-0650_RLatLon0.09_PT029H.grib2 2026-04-17 14:48 602K
20260417T12Z_MSC_RDPS_WindSpeed_IsbL-0700_RLatLon0.09_PT029H.grib2 2026-04-17 14:48 628K
20260417T12Z_MSC_RDPS_WindSpeed_IsbL-0750_RLatLon0.09_PT029H.grib2 2026-04-17 14:48 659K
20260417T12Z_MSC_RDPS_WindSpeed_IsbL-0800_RLatLon0.09_PT029H.grib2 2026-04-17 14:48 711K
20260417T12Z_MSC_RDPS_WindSpeed_IsbL-0850_RLatLon0.09_PT029H.grib2 2026-04-17 14:48 774K
20260417T12Z_MSC_RDPS_WindSpeed_IsbL-0875_RLatLon0.09_PT029H.grib2 2026-04-17 14:48 797K
20260417T12Z_MSC_RDPS_WindSpeed_IsbL-0900_RLatLon0.09_PT029H.grib2 2026-04-17 14:48 812K
20260417T12Z_MSC_RDPS_WindSpeed_IsbL-0925_RLatLon0.09_PT029H.grib2 2026-04-17 14:48 867K
20260417T12Z_MSC_RDPS_WindSpeed_IsbL-0950_RLatLon0.09_PT029H.grib2 2026-04-17 14:48 867K
20260417T12Z_MSC_RDPS_WindSpeed_IsbL-0970_RLatLon0.09_PT029H.grib2 2026-04-17 14:48 868K
20260417T12Z_MSC_RDPS_WindSpeed_IsbL-0985_RLatLon0.09_PT029H.grib2 2026-04-17 14:48 863K
20260417T12Z_MSC_RDPS_WindSpeed_IsbL-1000_RLatLon0.09_PT029H.grib2 2026-04-17 14:48 862K
20260417T12Z_MSC_RDPS_WindSpeed_IsbL-1015_RLatLon0.09_PT029H.grib2 2026-04-17 14:48 855K
20260417T12Z_MSC_RDPS_WindU_AGL-10m_RLatLon0.09_PT029H.grib2 2026-04-17 14:48 442K
20260417T12Z_MSC_RDPS_WindU_AGL-120m_RLatLon0.09_PT029H.grib2 2026-04-17 14:48 424K
20260417T12Z_MSC_RDPS_WindU_AGL-40m_RLatLon0.09_PT029H.grib2 2026-04-17 14:48 427K
20260417T12Z_MSC_RDPS_WindU_AGL-80m_RLatLon0.09_PT029H.grib2 2026-04-17 14:48 425K
20260417T12Z_MSC_RDPS_WindU_IsbL-0001_RLatLon0.09_PT029H.grib2 2026-04-17 14:48 292K
20260417T12Z_MSC_RDPS_WindU_IsbL-0005_RLatLon0.09_PT029H.grib2 2026-04-17 14:48 306K
20260417T12Z_MSC_RDPS_WindU_IsbL-0010_RLatLon0.09_PT029H.grib2 2026-04-17 14:48 316K
20260417T12Z_MSC_RDPS_WindU_IsbL-0020_RLatLon0.09_PT029H.grib2 2026-04-17 14:48 332K
20260417T12Z_MSC_RDPS_WindU_IsbL-0030_RLatLon0.09_PT029H.grib2 2026-04-17 14:48 257K
20260417T12Z_MSC_RDPS_WindU_IsbL-0050_RLatLon0.09_PT029H.grib2 2026-04-17 14:48 361K
20260417T12Z_MSC_RDPS_WindU_IsbL-0100_RLatLon0.09_PT029H.grib2 2026-04-17 14:48 335K
20260417T12Z_MSC_RDPS_WindU_IsbL-0150_RLatLon0.09_PT029H.grib2 2026-04-17 14:48 383K
20260417T12Z_MSC_RDPS_WindU_IsbL-0175_RLatLon0.09_PT029H.grib2 2026-04-17 14:48 411K
20260417T12Z_MSC_RDPS_WindU_IsbL-0200_RLatLon0.09_PT029H.grib2 2026-04-17 14:48 427K
20260417T12Z_MSC_RDPS_WindU_IsbL-0225_RLatLon0.09_PT029H.grib2 2026-04-17 14:48 433K
20260417T12Z_MSC_RDPS_WindU_IsbL-0250_RLatLon0.09_PT029H.grib2 2026-04-17 14:48 336K
20260417T12Z_MSC_RDPS_WindU_IsbL-0275_RLatLon0.09_PT029H.grib2 2026-04-17 14:48 348K
20260417T12Z_MSC_RDPS_WindU_IsbL-0300_RLatLon0.09_PT029H.grib2 2026-04-17 14:48 343K
20260417T12Z_MSC_RDPS_WindU_IsbL-0350_RLatLon0.09_PT029H.grib2 2026-04-17 14:48 349K
20260417T12Z_MSC_RDPS_WindU_IsbL-0400_RLatLon0.09_PT029H.grib2 2026-04-17 14:48 352K
20260417T12Z_MSC_RDPS_WindU_IsbL-0450_RLatLon0.09_PT029H.grib2 2026-04-17 14:48 354K
20260417T12Z_MSC_RDPS_WindU_IsbL-0500_RLatLon0.09_PT029H.grib2 2026-04-17 14:48 355K
20260417T12Z_MSC_RDPS_WindU_IsbL-0550_RLatLon0.09_PT029H.grib2 2026-04-17 14:48 459K
20260417T12Z_MSC_RDPS_WindU_IsbL-0600_RLatLon0.09_PT029H.grib2 2026-04-17 14:48 469K
20260417T12Z_MSC_RDPS_WindU_IsbL-0650_RLatLon0.09_PT029H.grib2 2026-04-17 14:48 487K
20260417T12Z_MSC_RDPS_WindU_IsbL-0700_RLatLon0.09_PT029H.grib2 2026-04-17 14:48 510K
20260417T12Z_MSC_RDPS_WindU_IsbL-0750_RLatLon0.09_PT029H.grib2 2026-04-17 14:48 539K
20260417T12Z_MSC_RDPS_WindU_IsbL-0800_RLatLon0.09_PT029H.grib2 2026-04-17 14:48 583K
20260417T12Z_MSC_RDPS_WindU_IsbL-0850_RLatLon0.09_PT029H.grib2 2026-04-17 14:48 635K
20260417T12Z_MSC_RDPS_WindU_IsbL-0875_RLatLon0.09_PT029H.grib2 2026-04-17 14:48 653K
20260417T12Z_MSC_RDPS_WindU_IsbL-0900_RLatLon0.09_PT029H.grib2 2026-04-17 14:48 662K
20260417T12Z_MSC_RDPS_WindU_IsbL-0925_RLatLon0.09_PT029H.grib2 2026-04-17 14:48 669K
20260417T12Z_MSC_RDPS_WindU_IsbL-0950_RLatLon0.09_PT029H.grib2 2026-04-17 14:48 660K
20260417T12Z_MSC_RDPS_WindU_IsbL-0970_RLatLon0.09_PT029H.grib2 2026-04-17 14:48 661K
20260417T12Z_MSC_RDPS_WindU_IsbL-0985_RLatLon0.09_PT029H.grib2 2026-04-17 14:48 661K
20260417T12Z_MSC_RDPS_WindU_IsbL-1000_RLatLon0.09_PT029H.grib2 2026-04-17 14:48 803K
20260417T12Z_MSC_RDPS_WindU_IsbL-1015_RLatLon0.09_PT029H.grib2 2026-04-17 14:48 798K
20260417T12Z_MSC_RDPS_WindV_AGL-10m_RLatLon0.09_PT029H.grib2 2026-04-17 14:48 438K
20260417T12Z_MSC_RDPS_WindV_AGL-120m_RLatLon0.09_PT029H.grib2 2026-04-17 14:48 422K
20260417T12Z_MSC_RDPS_WindV_AGL-40m_RLatLon0.09_PT029H.grib2 2026-04-17 14:48 541K
20260417T12Z_MSC_RDPS_WindV_AGL-80m_RLatLon0.09_PT029H.grib2 2026-04-17 14:48 423K
20260417T12Z_MSC_RDPS_WindV_IsbL-0001_RLatLon0.09_PT029H.grib2 2026-04-17 14:48 267K
20260417T12Z_MSC_RDPS_WindV_IsbL-0005_RLatLon0.09_PT029H.grib2 2026-04-17 14:48 305K
20260417T12Z_MSC_RDPS_WindV_IsbL-0010_RLatLon0.09_PT029H.grib2 2026-04-17 14:48 346K
20260417T12Z_MSC_RDPS_WindV_IsbL-0020_RLatLon0.09_PT029H.grib2 2026-04-17 14:48 362K
20260417T12Z_MSC_RDPS_WindV_IsbL-0030_RLatLon0.09_PT029H.grib2 2026-04-17 14:48 325K
20260417T12Z_MSC_RDPS_WindV_IsbL-0050_RLatLon0.09_PT029H.grib2 2026-04-17 14:48 359K
20260417T12Z_MSC_RDPS_WindV_IsbL-0100_RLatLon0.09_PT029H.grib2 2026-04-17 14:48 423K
20260417T12Z_MSC_RDPS_WindV_IsbL-0150_RLatLon0.09_PT029H.grib2 2026-04-17 14:48 379K
20260417T12Z_MSC_RDPS_WindV_IsbL-0175_RLatLon0.09_PT029H.grib2 2026-04-17 14:48 409K
20260417T12Z_MSC_RDPS_WindV_IsbL-0200_RLatLon0.09_PT029H.grib2 2026-04-17 14:48 330K
20260417T12Z_MSC_RDPS_WindV_IsbL-0225_RLatLon0.09_PT029H.grib2 2026-04-17 14:48 335K
20260417T12Z_MSC_RDPS_WindV_IsbL-0250_RLatLon0.09_PT029H.grib2 2026-04-17 14:48 336K
20260417T12Z_MSC_RDPS_WindV_IsbL-0275_RLatLon0.09_PT029H.grib2 2026-04-17 14:48 349K
20260417T12Z_MSC_RDPS_WindV_IsbL-0300_RLatLon0.09_PT029H.grib2 2026-04-17 14:48 343K
20260417T12Z_MSC_RDPS_WindV_IsbL-0350_RLatLon0.09_PT029H.grib2 2026-04-17 14:48 350K
20260417T12Z_MSC_RDPS_WindV_IsbL-0400_RLatLon0.09_PT029H.grib2 2026-04-17 14:48 352K
20260417T12Z_MSC_RDPS_WindV_IsbL-0450_RLatLon0.09_PT029H.grib2 2026-04-17 14:48 352K
20260417T12Z_MSC_RDPS_WindV_IsbL-0500_RLatLon0.09_PT029H.grib2 2026-04-17 14:48 353K
20260417T12Z_MSC_RDPS_WindV_IsbL-0550_RLatLon0.09_PT029H.grib2 2026-04-17 14:48 456K
20260417T12Z_MSC_RDPS_WindV_IsbL-0600_RLatLon0.09_PT029H.grib2 2026-04-17 14:48 465K
20260417T12Z_MSC_RDPS_WindV_IsbL-0650_RLatLon0.09_PT029H.grib2 2026-04-17 14:48 485K
20260417T12Z_MSC_RDPS_WindV_IsbL-0700_RLatLon0.09_PT029H.grib2 2026-04-17 14:48 507K
20260417T12Z_MSC_RDPS_WindV_IsbL-0750_RLatLon0.09_PT029H.grib2 2026-04-17 14:48 534K
20260417T12Z_MSC_RDPS_WindV_IsbL-0800_RLatLon0.09_PT029H.grib2 2026-04-17 14:48 579K
20260417T12Z_MSC_RDPS_WindV_IsbL-0850_RLatLon0.09_PT029H.grib2 2026-04-17 14:48 634K
20260417T12Z_MSC_RDPS_WindV_IsbL-0875_RLatLon0.09_PT029H.grib2 2026-04-17 14:48 653K
20260417T12Z_MSC_RDPS_WindV_IsbL-0900_RLatLon0.09_PT029H.grib2 2026-04-17 14:48 663K
20260417T12Z_MSC_RDPS_WindV_IsbL-0925_RLatLon0.09_PT029H.grib2 2026-04-17 14:48 661K
20260417T12Z_MSC_RDPS_WindV_IsbL-0950_RLatLon0.09_PT029H.grib2 2026-04-17 14:48 658K
20260417T12Z_MSC_RDPS_WindV_IsbL-0970_RLatLon0.09_PT029H.grib2 2026-04-17 14:48 656K
20260417T12Z_MSC_RDPS_WindV_IsbL-0985_RLatLon0.09_PT029H.grib2 2026-04-17 14:48 655K
20260417T12Z_MSC_RDPS_WindV_IsbL-1000_RLatLon0.09_PT029H.grib2 2026-04-17 14:48 794K
20260417T12Z_MSC_RDPS_WindV_IsbL-1015_RLatLon0.09_PT029H.grib2 2026-04-17 14:48 789K